Weather History for KCHO - November, 2011

Change the Weather History Date:

Wednesday, November 23, 2011

  Actual Average Record
Temperature  
Mean Temperature 55 °F 44 °F  
Max Temperature 65 °F 55 °F 78 °F (1913)
Min Temperature 44 °F 34 °F 10 °F (1935)
Degree Days  
Heating Degree Days 10 21  
Month to date heating degree days 355 388  
Since 1 July heating degree days 630 737  
Cooling Degree Days 0 0  
Month to date cooling degree days 0 0  
Year to date cooling degree days 1603 1034  
Growing Degree Days 5 (Base 50)    
Moisture  
Dew Point 46 °F    
Average Humidity 68    
Maximum Humidity 93    
Minimum Humidity 43    
Precipitation  
Precipitation 0.91 in 0.12 in 0.91 in (2011)
Month to date precipitation 2.21 2.91  
Year to date precipitation 43.02 38.64  
Sea Level Pressure  
Sea Level Pressure 29.80 in    
Wind  
Wind Speed 10 mph (WSW)    
Max Wind Speed 23 mph    
Max Gust Speed 40 mph    
Visibility 7 miles    
Events Fog , Rain    
T = Trace of Precipitation, MM = Missing Value Source: NWS Daily Summary

Daily Weather History Graph

Daily Weather History Graph

Search for Another Location

Airport or City:

Trip Planner

Search our weather history database for the weather conditions in past years. The results will help you decide how hot, cold, wet, or windy it might be!

Date:

Astronomy

Nov. 23, 2011 Rise Set
Actual Time 7:03 AM EST 4:57 PM EST
Civil Twilight 6:34 AM EST 5:25 PM EST
Nautical Twilight 6:02 AM EST 5:57 PM EST
Astronomical Twilight 5:30 AM EST 6:29 PM EST
Moon 5:05 AM EST (11/23) 3:36 PM EST (11/23)
Length of Visible Light 10h 51m
Length of Day
9h 53m
Waning Crescent, 4% of the Moon is Illuminated
Nov 23
Waning Crescent
Nov 25
New
Dec 2
First Quarter
Dec 10
Full
Dec 17
Last Quarter

Hourly Weather History & Observations

Time (EST) Temp. Windchill Dew Point Humidity Pressure Visibility Wind Dir Wind Speed Gust Speed Precip Events Conditions
12:53 AM 55.0 °F - 54.0 °F 96% 29.78 in 0.8 mi South 3.5 mph - 0.02 in Rain Light Rain
1:10 AM 55.4 °F - 55.4 °F 100% 29.79 in 1.0 mi Variable 4.6 mph - 0.03 in Rain Rain
1:33 AM 55.4 °F - 55.4 °F 100% 29.78 in 0.5 mi Variable 3.5 mph - 0.45 in Fog , Rain Heavy Rain
1:44 AM 59.0 °F - 57.2 °F 94% 29.76 in 1.0 mi South 8.1 mph - 0.59 in Rain Heavy Rain
1:53 AM 59.0 °F - 57.9 °F 96% 29.74 in 1.5 mi SSW 9.2 mph 20.7 mph 0.73 in Rain Heavy Rain
2:00 AM 59.0 °F - 57.2 °F 94% 29.75 in 1.8 mi SSW 9.2 mph 20.7 mph 0.06 in Rain Heavy Rain
2:07 AM 59.0 °F - 57.2 °F 94% 29.75 in 2.0 mi SW 9.2 mph - 0.09 in Rain Heavy Rain
2:17 AM 60.8 °F - 57.2 °F 88% 29.74 in 4.0 mi Calm Calm - 0.13 in Rain Rain
2:53 AM 59.0 °F - 57.9 °F 96% 29.70 in 8.0 mi South 5.8 mph - 0.16 in Rain Light Rain
3:53 AM 59.0 °F - 57.2 °F 94% 29.68 in 10.0 mi South 8.1 mph - N/A   Scattered Clouds
4:53 AM 59.0 °F - 57.0 °F 93% 29.65 in 10.0 mi South 6.9 mph - N/A   Scattered Clouds
5:31 AM 59.0 °F - 57.2 °F 94% 29.65 in 10.0 mi South 5.8 mph - 0.01 in   Partly Cloudy
5:53 AM 60.1 °F - 57.9 °F 93% 29.65 in 3.0 mi SSW 4.6 mph - 0.01 in   Mostly Cloudy
6:10 AM 60.8 °F - 57.2 °F 88% 29.65 in 3.0 mi SSW 5.8 mph - N/A   Scattered Clouds
6:53 AM 60.8 °F - 57.2 °F 88% 29.65 in 5.0 mi South 6.9 mph - N/A   Partly Cloudy
7:53 AM 60.1 °F - 57.9 °F 93% 29.65 in 10.0 mi South 5.8 mph - N/A   Partly Cloudy
8:53 AM 63.0 °F - 55.9 °F 78% 29.66 in 10.0 mi Variable 3.5 mph - N/A   Partly Cloudy
9:53 AM 64.9 °F - 50.0 °F 58% 29.66 in 10.0 mi West 18.4 mph - N/A   Scattered Clouds
10:38 AM 62.6 °F - 46.4 °F 55% 29.69 in 10.0 mi WSW 16.1 mph 23.0 mph N/A   Overcast
10:53 AM 62.1 °F - 45.0 °F 53% 29.69 in 10.0 mi WSW 16.1 mph 23.0 mph N/A   Mostly Cloudy
11:53 AM 59.0 °F - 37.9 °F 46% 29.73 in 10.0 mi WNW 17.3 mph 28.8 mph N/A   Partly Cloudy
12:53 PM 55.9 °F - 34.0 °F 44% 29.76 in 10.0 mi NNW 23.0 mph 40.3 mph N/A   Partly Cloudy
1:53 PM 54.0 °F - 33.1 °F 45% 29.78 in 10.0 mi NW 17.3 mph 34.5 mph N/A   Overcast
2:53 PM 52.0 °F - 34.0 °F 50% 29.83 in 10.0 mi NNW 16.1 mph 29.9 mph N/A   Overcast
3:53 PM 52.0 °F - 36.0 °F 54% 29.88 in 10.0 mi NNW 17.3 mph 34.5 mph N/A   Overcast
4:53 PM 52.0 °F - 35.1 °F 53% 29.93 in 10.0 mi North 8.1 mph - N/A   Scattered Clouds
5:53 PM 51.1 °F - 33.1 °F 50% 29.95 in 10.0 mi North 12.7 mph 21.9 mph N/A   Clear
6:53 PM 51.1 °F - 30.9 °F 46% 29.99 in 10.0 mi NNW 10.4 mph 21.9 mph N/A   Clear
7:53 PM 50.0 °F - 30.9 °F 48% 30.02 in 10.0 mi NNW 10.4 mph 24.2 mph N/A   Clear
8:53 PM 50.0 °F - 30.0 °F 46% 30.06 in 10.0 mi North 8.1 mph 19.6 mph N/A   Clear
9:53 PM 48.2 °F - 28.4 °F 46% 30.09 in 10.0 mi Variable 4.6 mph - N/A   Clear
10:53 PM 46.0 °F 43.9 °F 30.0 °F 54% 30.10 in 10.0 mi North 4.6 mph - N/A   Clear
11:53 PM 46.0 °F 44.8 °F 28.9 °F 51% 30.12 in 10.0 mi NW 3.5 mph - N/A   Clear